Voltar ao catálogo

STARLINK-11245

AtivoComunicaçõesVLEO
NORAD 60925·PAYLOAD·🇺🇸 United States

Lançado Aug 31, 2024 de Vandenberg Space Force Base

Loading…

Próximas Passagens (próximas 24 horas)

TLE

AtualizadoSource: CelesTrak SupGP

Época: Sep 15, 2026, 02:14 UTC

1 60925C 24155B   26258.09354167  .00061788  00000+0  50881-3 0  2589
2 60925  53.1566 127.7526 0001068  88.1319  63.5205 15.69686068    12

Acompanhe STARLINK-11245 em tempo real com AllMySat

Download on the App Store